Location: *
(48.8131°S, 169.0603°W)
Time: 01:08:28
(UTC+00:00)

Daily predictions for brighter satellites

Satellite Brightness Start Highest point End
(mag) Time Altitude Azimuth Time Altitude Azimuth Time Altitude Azimuth
Cosmos 1844 Rocket 2.8 04:01:52 10° NNW 04:07:28 65° ENE 04:13:10 10° SSE
PSLV R/B 3.6 04:04:01 10° SSE 04:08:28 83° ENE 04:12:52 10° NNW
USA 81 4.1 04:06:29 10° S 04:11:53 89° E 04:17:12 10° N
Cosmos 1626 2.9 04:09:44 10° S 04:13:08 31° ESE 04:16:28 10° NE
Cosmos 2242 Rocket 4.0 04:09:39 10° SSW 04:14:17 73° W 04:18:48 10° N
Cosmos 1371 Rocket 4.1 04:10:22 10° SSW 04:15:33 57° ESE 04:20:41 10° NE
Meteor 1-21 4.3 04:11:04 10° S 04:17:00 71° ESE 04:22:48 10° NNE
CZ-2C R/B 3.4 04:14:50 10° SSE 04:20:35 78° ENE 04:26:27 10° N
CZ-4B R/B 3.5 04:17:05 10° SSE 04:22:07 88° W 04:27:12 10° NNW
H-2A R/B 3.0 04:20:36 10° S 04:24:26 72° WSW 04:28:11 10° NNW
TSX-5 3.3 04:23:57 10° SSW 04:27:37 75° ESE 04:30:50 10° NE
ATLAS 5 CENTAUR R/B 2.4 04:22:55 10° SW 04:28:50 47° SE 04:33:42 10° ENE
COSMOS 2406 4.2 04:26:02 10° SSW 04:30:51 26° SE 04:35:38 10° E
Cosmos 1674 2.7 04:29:07 10° S 04:32:58 60° ESE 04:36:46 10° NNE
Cosmos 1624 Rocket 4.0 04:28:02 10° SSW 04:33:28 73° ESE 04:38:48 10° NNE
Cosmos 1674 Rocket 4.2 04:29:26 10° S 04:33:29 34° ESE 04:37:28 10° NE
Cosmos 1707 2.9 04:30:03 10° SSW 04:34:01 81° W 04:37:54 10° N
USA 267 3.3 04:29:10 10° ENE 04:35:46 86° SE 04:42:26 10° SW
SKYMED 2 3.9 04:31:25 10° N 04:35:48 73° WNW 04:40:14 10° SSW
DMSP B5D2-2 4.1 04:31:07 10° NNE 04:36:23 89° E 04:41:45 10° SSW
Envisat 3.9 04:31:56 10° S 04:36:57 52° WSW 04:41:54 10° NW
CZ-4B R/B 3.9 04:34:01 10° SSE 04:37:42 49° E 04:41:17 10° N
Cosmos 1461 3.9 04:34:22 10° WNW 04:38:51 47° SW 04:43:17 10° SSE
Cosmos 1833 Rocket 3.1 04:35:10 10° SSW 04:40:34 41° SE 04:45:54 10° ENE
NOAA 11 4.4 04:39:53 10° SSE 04:45:31 82° WSW 04:51:04 10° NNW
Cosmos 405 Rocket 3.2 04:42:40 10° SSW 04:46:34 64° W 04:50:29 10° N
NOAA 12 4.4 04:42:25 10° SSE 04:47:33 46° E 04:52:36 10° N
Nadezhda 4 Rocket 4.2 04:41:18 10° NNW 04:47:38 78° W 04:54:05 10° S
BREEZE-M DEB (TANK) 2.8 04:45:47 10° WSW 04:47:58 54° NNW 04:51:37 10° NE
Cosmos 1553 Rocket 4.3 04:46:13 10° S 04:52:10 44° ESE 04:58:08 10° NE
CENTAUR R/B 3.9 04:50:38 10° SW 04:55:32 21° S 04:58:45 14° SE
Cosmos 2056 Rocket 3.7 04:50:32 10° SSW 04:55:47 77° WNW 05:01:03 10° NNE
Cosmos 1420 Rocket 4.0 04:51:28 10° SSW 04:56:45 90° E 05:01:59 10° NNE
Meteor 2-16 Rocket 4.4 04:51:41 10° N 04:57:47 75° E 05:03:59 10° SSE
EXPRESS MD2 3.2 04:56:55 10° NW 04:59:06 29° NNE 04:59:42 25° ENE
Cosmos 1939 Rocket 2.9 04:57:17 10° SSE 05:01:26 66° E 05:05:35 10° N
Cosmos 1844 4.1 04:56:18 10° NW 05:01:52 64° WSW 05:07:28 10° SSE
Cosmos 2026 Rocket 3.9 04:56:13 10° N 05:02:24 72° E 05:08:35 10° SSE
Meteor 1-4 Rocket 2.5 04:59:06 10° NNW 05:02:39 86° WSW 05:06:12 10° S
Landsat 5 3.4 04:59:45 10° NNE 05:03:30 51° ESE 05:07:19 10° S
ARGOS 4.2 05:02:22 19° ESE 05:04:21 24° E 05:08:39 10° NE
Iridium 51 4.5 05:01:02 10° S 05:04:50 49° E 05:08:54 10° NNE
Cosmos 1627 Rocket 4.4 04:59:23 10° N 05:05:38 78° E 05:11:53 10° SSE
Cosmos 1932 4.4 05:00:20 10° SW 05:06:37 63° SE 05:12:46 10° NE
Meteor 2-5 Rocket 4.4 05:03:56 10° S 05:09:07 32° ESE 05:14:07 10° NE
SeaSat 1 4.3 05:11:57 13° ENE 05:11:57 13° ENE 05:13:23 10° NE
NOSS 3-1 (C) 4.2 05:01:59 10° NNW 05:10:58 81° NE 05:17:21 17° SE
Cosmos 2221 Rocket 3.8 05:06:51 10° SSW 05:11:22 74° W 05:15:48 10° N
S3M 4.4 05:05:38 10° S 05:11:43 40° ESE 05:17:40 10° NE
SJ-7 4.3 05:08:12 10° SSE 05:12:18 83° E 05:16:24 10° NNW
Meteor PRIRODA 4.1 05:11:45 27° SE 05:13:13 39° E 05:16:43 10° N
ATLAS CENTAUR R/B 3.5 05:13:51 10° SW 05:15:28 13° SSW 05:17:05 10° S
Cosmos 2082 Rocket 2.8 05:11:46 10° SSW 05:17:04 36° SE 05:19:54 23° E
CZ-3B R/B 1.6 05:13:40 10° NW 05:17:59 61° NNE 05:18:44 41° E
Cosmos 1975 4.5 05:15:53 10° NW 05:19:37 34° WSW 05:23:26 10° S
Meteor 2-10 4.3 05:14:42 10° N 05:20:17 57° E 05:25:59 10° SSE
Meteor 1-24 Rocket 4.3 05:15:45 10° S 05:20:47 32° ESE 05:24:42 14° NE
SL-14 R/B 3.1 05:17:06 10° S 05:21:03 75° E 05:24:56 10° NNE
ISS -1.2 05:23:31 10° W 05:26:14 22° NW 05:28:54 10° NNE
ATLAS 3B R/B 3.7 05:21:01 10° WNW 05:28:01 43° SW 05:33:22 16° SSE
Cosmos 1726 2.2 05:24:33 10° NNE 05:28:02 47° E 05:28:09 46° E
CZ-2D R/B 3.4 05:27:23 39° SE 05:28:24 49° E 05:32:11 10° N
NOSS 3-1 (A) 4.2 05:19:52 10° NNW 05:28:45 68° NE 05:34:00 24° SE
BREEZE-M DEB (TANK) 1.5 05:29:55 10° WNW 05:31:51 62° N 05:31:51 62° N
Cosmos 1331 Rocket 4.2 05:27:13 10° SSW 05:32:20 48° ESE 05:35:19 23° ENE
Cosmos 1733 Rocket 4.0 05:29:03 10° NNW 05:33:18 49° WSW 05:37:38 10° S
CZ-4C R/B 2.9 05:29:51 10° NNE 05:33:19 59° ESE 05:36:48 10° S
Cosmos 2278 Rocket 2.5 05:29:15 10° N 05:34:38 46° ENE 05:36:31 34° ESE
Cosmos 1975 Rocket 4.3 05:32:12 10° S 05:34:39 27° SSE 05:34:39 27° SSE
Meteor 1-31 Rocket 4.2 05:34:17 10° S 05:37:52 36° WSW 05:41:24 10° NW
H-2A R/B 2.0 05:34:41 10° SSE 05:39:57 78° ENE 05:45:20 10° N
USA 215 3.4 05:38:55 27° SE 05:42:46 69° SSW 05:49:20 10° WNW
CZ-4B R/B 3.1 05:40:23 26° SSE 05:43:01 74° ENE 05:47:33 10° N
CZ-4C R/B 3.0 05:37:02 10° NW 05:45:19 77° SW 05:49:41 26° SE
Cosmos 1766 3.1 05:41:30 10° N 05:45:22 78° E 05:46:05 57° SSE
Radarsat 4.5 05:43:15 22° SSE 05:46:41 67° ENE 05:51:54 10° N
ADEOS 3.6 05:43:05 10° SSE 05:48:26 83° WSW 05:53:41 10° NNW
Cosmos 2266 Rocket 4.1 05:45:03 10° NNE 05:51:11 54° E 05:57:05 12° SSE
Cosmos 1844 Rocket 4.4 05:46:58 10° WNW 05:51:50 28° SW 05:56:33 11° SSE
CORIOLIS 4.0 05:49:58 19° SSE 05:54:01 77° ENE 05:59:28 10° N
Cosmos 1048 Rocket 4.0 05:49:13 10° NNW 05:54:33 71° ENE 05:56:19 43° SE
Cosmos 1452 Rocket 3.8 05:51:26 10° SSW 05:56:47 71° WNW 06:02:04 10° NNE
AQUARIUS 4.1 05:55:37 38° SSE 05:57:24 88° E 06:01:57 10° NNW
Cosmos 1110 Rocket 3.8 05:55:49 10° SSW 06:01:05 85° ESE 06:04:22 24° NNE
SJ-11-01 4.4 06:07:09 57° NNE 06:07:09 57° NNE 06:11:08 10° N
SMAP 3.5 06:08:31 24° S 06:11:19 61° WSW 06:15:57 10° NNW
Cosmos 468 4.4 06:06:52 10° NNW 06:12:15 86° ENE 06:13:13 61° SSE
ATLAS 5 CENTAUR R/B 3.2 06:08:08 10° SW 06:13:24 39° WNW 06:17:34 11° N
COSMOS 2406 3.4 06:09:57 10° SSW 06:15:45 74° WNW 06:20:04 18° NNE
Cosmos 44 4.5 06:14:45 10° SSW 06:18:25 35° S 06:18:25 35° S
Cosmos 1782 Rocket 4.1 06:18:08 10° NNW 06:21:33 52° NNW 06:21:33 52° NNW
Cosmos 1833 Rocket 4.0 06:19:14 10° SW 06:24:29 39° WNW 06:29:39 10° N
Meteor 1-15 Rocket 4.5 06:20:32 10° NNW 06:26:18 69° WSW 06:29:41 26° S
NOSS 3-2 (A) 4.4 06:29:49 10° SW 06:35:13 36° S 06:35:13 36° S
Cosmos 2315 Rocket 4.0 06:30:16 10° S 06:36:47 89° W 06:43:13 10° N
Meteor 1-22 Rocket 4.4 06:39:02 10° NNW 06:43:47 63° WNW 06:43:47 63° WNW
ARGOS 3.6 06:43:52 48° SSW 06:45:00 58° WSW 06:50:18 10° NNW
CENTAUR R/B 3.6 06:42:23 10° SW 06:45:56 28° S 06:45:56 28° S
SeaSat 1 4.0 06:51:43 27° NNW 06:51:43 27° NNW 06:53:54 10° NNW
USA 229 DEB 4.1 06:43:45 10° NW 06:51:31 68° SW 06:53:01 55° S
USA 229 4.1 06:43:49 10° NW 06:51:34 68° SW 06:53:03 56° S
Cosmos 2082 Rocket 3.0 06:55:50 10° SW 07:01:19 47° WNW 07:01:50 46° NW
H-2A R/B 4.4 07:15:17 11° SSW 07:18:47 19° WSW 07:22:29 10° WNW
Cosmos 2278 Rocket 3.5 07:13:37 10° WNW 07:18:25 36° WSW 07:18:25 36° WSW
ATLAS 3B R/B 4.3 07:14:54 10° WSW 07:20:36 24° S 07:20:37 24° S
USA 215 4.1 07:26:16 42° SSW 07:26:16 42° SSW 07:31:29 10° WSW
CZ-4C R/B 4.0 07:28:11 10° W 07:34:51 31° SSW 07:34:52 31° SSW
